Date String (YYYY-MM-DD hh:mm:ss) UTC,Instrument flags,Ambient pressure (hPa),Sample flow (lpm),Bypass flow (lpm),Sample temperature (°C),Ambient temperature (°C),ASC tube jacket temperature (°C),LED temperature (°C),Box temperature (°C),Sample RH (%),Span deviation,Mass concentration (μg/m³),Mass concentration (μg/m³),Mass concentration (μg/m³)
DateTimeUTC,F1_M11,P_M11,Q1_M11,Q2_M11,T1_M11,T2_M11,T3_M11,T4_M11,T5_M11,U1_M11,ZSPAN_M11,X0_M11,X2_M11,X1_M11
2023-02-07 12:00:00,,0827.7,4.99,0.00,22.5,22.4,00.0,31.2,24.4,06.8,0000.0,0002.05,0001.22,0000.96
2023-02-07 12:01:00,,0827.7,5.00,0.00,22.5,21.9,00.0,31.2,24.3,06.7,0000.0,0002.01,0001.21,0000.97
2023-02-07 12:02:00,,0827.7,5.01,0.00,22.5,21.6,00.0,31.2,24.2,06.8,0000.0,0002.01,0001.22,0000.97
2023-02-07 12:03:00,,0827.7,5.00,0.00,22.4,21.3,00.0,31.2,24.2,06.9,0000.0,0001.97,0001.22,0000.97
2023-02-07 12:04:00,,0827.7,5.00,0.00,22.4,21.2,00.0,31.3,24.1,07.0,0000.0,0001.88,0001.20,0000.96
2023-02-07 12:05:00,,0827.7,5.02,0.00,22.4,21.0,00.0,31.3,24.1,07.1,0000.0,0001.83,0001.19,0000.95
2023-02-07 12:06:00,,0827.7,4.98,0.00,22.4,20.9,00.0,31.3,24.0,07.1,0000.0,0001.85,0001.20,0000.96
2023-02-07 12:07:00,,0827.7,5.01,0.00,22.3,20.8,00.0,31.2,24.0,07.0,0000.0,0001.98,0001.18,0000.96
2023-02-07 12:08:00,,0827.7,5.00,0.00,22.3,20.8,00.0,31.2,23.9,07.0,0000.0,0001.79,0001.13,0000.94
2023-02-07 12:09:00,,0827.7,5.00,0.00,22.3,20.7,00.0,31.2,23.9,07.0,0000.0,0001.88,0001.14,0000.94
2023-02-07 12:10:00,,0827.7,5.00,0.00,22.2,20.6,00.0,31.2,23.9,06.9,0000.0,0001.90,0001.15,0000.94
2023-02-07 12:11:00,,0827.7,4.98,0.00,22.2,20.6,00.0,31.2,23.8,07.0,0000.0,0001.92,0001.16,0000.94
2023-02-07 12:12:00,,0827.7,5.01,0.00,22.2,20.6,00.0,31.2,23.8,07.0,0000.0,0001.93,0001.17,0000.94
2023-02-07 12:13:00,,0827.7,4.99,0.00,22.2,21.4,00.0,31.1,24.0,07.0,0000.0,0001.90,0001.15,0000.94
2023-02-07 12:14:00,,0827.7,5.02,0.00,22.4,22.4,00.0,31.1,24.3,06.9,0000.0,0001.90,0001.15,0000.94
2023-02-07 12:15:00,,0827.7,4.99,0.00,22.5,22.9,00.0,31.1,24.5,06.9,0000.0,0001.89,0001.14,0000.94
2023-02-07 12:16:00,,0827.7,5.00,0.00,22.5,22.4,00.0,31.2,24.4,06.9,0000.0,0002.00,0001.15,0000.96
2023-02-07 12:17:00,,0827.7,4.97,0.00,22.5,21.9,00.0,31.2,24.3,06.9,0000.0,0001.99,0001.14,0000.96
2023-02-07 12:18:00,,0827.7,4.98,0.00,22.4,21.6,00.0,31.2,24.2,06.9,0000.0,0001.77,0001.12,0000.95
2023-02-07 12:19:00,,0827.7,5.01,0.00,22.4,21.4,00.0,31.2,24.1,06.9,0000.0,0001.88,0001.15,0000.96
2023-02-07 12:20:00,,0827.7,5.01,0.00,22.4,21.2,00.0,31.3,24.1,06.9,0000.0,0001.82,0001.14,0000.96
2023-02-07 12:21:00,,0827.6,5.01,0.00,22.4,21.0,00.0,31.3,24.0,06.9,0000.0,0001.79,0001.14,0000.96
2023-02-07 12:22:00,,0827.6,5.01,0.00,22.3,20.9,00.0,31.2,24.0,06.9,0000.0,0001.82,0001.14,0000.95
2023-02-07 12:23:00,,0827.6,4.99,0.00,22.3,20.8,00.0,31.2,23.9,06.9,0000.0,0001.95,0001.17,0000.95
2023-02-07 12:24:00,,0827.7,5.00,0.00,22.3,20.7,00.0,31.2,23.9,06.9,0000.0,0002.00,0001.18,0000.95
2023-02-07 12:25:00,,0827.6,4.99,0.00,22.2,20.6,00.0,31.2,23.9,06.9,0000.0,0002.07,0001.20,0000.95
2023-02-07 12:26:00,,0827.6,5.01,0.00,22.2,20.6,00.0,31.2,23.8,06.9,0000.0,0002.07,0001.21,0000.95
2023-02-07 12:27:00,,0827.6,5.00,0.00,22.2,20.5,00.0,31.2,23.8,07.1,0000.0,0001.93,0001.18,0000.94
2023-02-07 12:28:00,,0827.6,5.00,0.00,22.2,20.5,00.0,31.2,23.8,07.2,0000.0,0001.94,0001.19,0000.93
2023-02-07 12:29:00,,0827.6,5.00,0.00,22.2,21.4,00.0,31.1,24.0,07.1,0000.0,0002.04,0001.23,0000.95
2023-02-07 12:30:00,,0827.6,5.00,0.00,22.3,22.4,00.0,31.1,24.2,07.0,0000.0,0001.98,0001.23,0000.95
2023-02-07 12:31:00,,0827.6,5.00,0.00,22.4,22.8,00.0,31.1,24.4,06.8,0000.0,0001.92,0001.22,0000.95
2023-02-07 12:32:00,,0827.5,5.00,0.00,22.4,22.3,00.0,31.2,24.4,06.7,0000.0,0001.92,0001.22,0000.96
2023-02-07 12:33:00,,0827.5,5.01,0.00,22.4,21.9,00.0,31.2,24.2,06.7,0000.0,0001.86,0001.20,0000.95
2023-02-07 12:34:00,,0827.5,4.99,0.00,22.4,21.6,00.0,31.2,24.2,06.6,0000.0,0001.70,0001.16,0000.95
2023-02-07 12:35:00,,0827.5,5.01,0.00,22.4,21.3,00.0,31.2,24.1,06.6,0000.0,0001.78,0001.18,0000.96
2023-02-07 12:36:00,,0827.5,4.98,0.00,22.3,21.1,00.0,31.2,24.0,06.7,0000.0,0002.27,0001.18,0000.96
2023-02-07 12:37:00,,0827.5,5.01,0.00,22.3,21.0,00.0,31.2,24.0,06.7,0000.0,0002.27,0001.17,0000.97
2023-02-07 12:38:00,,0827.7,5.01,0.00,22.3,20.9,00.0,31.2,24.0,06.8,0000.0,0002.30,0001.18,0000.97
2023-02-07 12:39:00,,0827.5,5.00,0.00,22.3,20.8,00.0,31.2,23.9,06.8,0000.0,0002.40,0001.22,0000.99
2023-02-07 12:40:00,,0827.6,5.01,0.00,22.2,20.7,00.0,31.2,23.9,06.6,0000.0,0002.34,0001.20,0000.97
2023-02-07 12:41:00,,0827.6,5.00,0.00,22.2,20.6,00.0,31.2,23.9,06.7,0000.0,0002.27,0001.17,0000.98
2023-02-07 12:42:00,,0827.6,5.03,0.00,22.2,20.5,00.0,31.2,23.8,06.7,0000.0,0003.25,0001.20,0000.99
2023-02-07 12:43:00,,0827.5,4.97,0.00,22.2,20.5,00.0,31.2,23.8,06.7,0000.0,0003.69,0001.22,0000.99
2023-02-07 12:44:00,,0827.6,5.00,0.00,22.2,20.9,00.0,31.1,23.9,06.8,0000.0,0003.78,0001.25,0001.00
2023-02-07 12:45:00,,0827.6,4.96,0.00,22.3,21.9,00.0,31.1,24.2,06.7,0000.0,0003.86,0001.28,0001.00
2023-02-07 12:46:00,,0827.6,4.99,0.00,22.4,22.7,00.0,31.1,24.4,06.7,0000.0,0003.83,0001.28,0001.00
2023-02-07 12:47:00,,0827.6,5.01,0.00,22.5,22.6,00.0,31.1,24.4,06.6,0000.0,0003.37,0001.30,0001.01
2023-02-07 12:48:00,,0827.6,5.00,0.00,22.4,22.1,00.0,31.2,24.3,06.6,0000.0,0003.45,0001.31,0001.01
2023-02-07 12:49:00,,0827.6,4.99,0.00,22.4,21.7,00.0,31.2,24.2,06.6,0000.0,0003.69,0001.34,0001.01
2023-02-07 12:50:00,,0827.6,5.00,0.00,22.4,21.4,00.0,31.2,24.2,06.6,0000.0,0003.65,0001.33,0001.01
2023-02-07 12:51:00,,0827.6,5.00,0.00,22.4,21.2,00.0,31.2,24.1,06.6,0000.0,0003.60,0001.31,0001.01
2023-02-07 12:52:00,,0827.7,5.00,0.00,22.4,21.0,00.0,31.2,24.1,06.6,0000.0,0003.59,0001.31,0001.00
2023-02-07 12:53:00,,0827.7,5.01,0.00,22.3,20.9,00.0,31.2,24.0,06.6,0000.0,0002.80,0001.28,0000.99
2023-02-07 12:54:00,,0827.7,4.98,0.00,22.3,20.8,00.0,31.2,23.9,06.7,0000.0,0002.24,0001.28,0000.98
2023-02-07 12:55:00,,0827.8,4.99,0.00,22.3,20.8,00.0,31.2,23.9,06.6,0000.0,0002.18,0001.27,0000.98
2023-02-07 12:56:00,,0827.7,4.95,0.00,22.2,20.7,00.0,31.2,23.9,06.7,0000.0,0002.15,0001.27,0000.98
2023-02-07 12:57:00,,0827.7,5.01,0.00,22.2,20.7,00.0,31.2,23.9,06.7,0000.0,0002.18,0001.29,0000.98
2023-02-07 12:58:00,,0827.7,5.00,0.00,22.2,20.6,00.0,31.2,23.8,06.7,0000.0,0002.10,0001.26,0000.98
2023-02-07 12:59:00,,0827.7,5.02,0.00,22.2,20.5,00.0,31.2,23.8,06.6,0000.0,0002.09,0001.27,0000.97
